Showing default

SHIYAN 23 (SY-23), 59728

Orbit data source: Space-Track

SHIYAN 23 (SY-23), 59728 is a payload satellite owned by CNSA (CN) in SSO that was launched on Sat, 11 May 2024 UTC via a CHANG ZHENG 4C launch vehicle from the Jiuquan Satellite Launch Center, China (JSC). Payload-class satellites include a variety of spacecraft equipped with specific instruments for various scientific and technological missions. These include communications satellites like Starlink; space stations such as the ISS; scientific satellites like the Hubble; Earth observation satellites from companies like Planet Labs, Umbra, and HawkEye 360; GPS; miniature CubeSats for education and research; and military/defense satellites.

Loading next visibility...
Identifier
59728, 2024-089A
Orbit
SSO
Country
Flag of CNCN / PRC
Related business
Manufacturer
CAST
Mission
Operational Defense Technology
Bus & Motor
SY23, Unknown motor
Mass
~1,000 kg wet, ~1,000 kg dry
Launch date (UTC)
2024-05-11 (2 years ago)
Launch vehicle
CHANG ZHENG 4C
Launch site
Jiuquan Satellite Launch Center, China (JSC)
Object type
Payload
Rocket body
Debris
Shape & HBR
Box + 2 Pan, 2.5 m
Radar Cross Section
4.795 m², Large (>1 m²)

Expand to show TLE details & history
Last TLE update: 21 hours ago

TLE from 21 hours ago
0 SHIYAN 23 (SY-23)
1 59728U 24089A   26132.73810345  .00000358  00000-0  45991-4 0  9997
2 59728  97.7771 135.2493 0002509 338.7436  21.3675 14.86989184108571
Epoch: 2026-05-12T17:42Z
TLE epoch observation values (Epoch: 2026-05-12T17:42:52.138Z)
Latitude
-0.00005°
Longitude
-0.97611°
Altitude
608.751 km
Speed
7.556 km/s
True Right ascension
09h 00m 59s
True Declination
0° 00' 00"
Sunlit
Object was in daylight at epoch
Visualization orbit readout
Latitude
Unknown
Longitude
Unknown
Altitude
Unknown
Speed
Unknown
Apparent Right ascension
Unknown
Apparent Declination
Unknown
Sunlit
N/A
Visualization observer readout
Local Sidereal Time
22:54:03
Azimuth
Unknown
Elevation
Unknown
Doppler factor
Unknown
Orbital elements
Apogee altitude
606.127 km
Perigee altitude
602.623 km
Semi-major axis
6,982.512 km
Eccentricity
0.00025
Inclination
97.7771°
RAAN
135.2493°
Arg. of periapsis
338.7436°
True anomaly
21.37798°
Mean anomaly
21.3675°
Eccentric anomaly
21.37274°
Mean motion
3.71985 °/min
Orbital period
96.78 mins
BSTAR
0.000045991
Loading maneuver chart data...
Computing Atmospheric mass density...
Loading historical data...
Loading historical data...
Loading historical data...
Loading historical data...
Loading historical data...
Loading historical data...
Loading historical data...
Other satellites on launch #89 in the year 2024 (2024-05-11 UTC)

Documentation

Showing up to 5 results
|